Weather History for Tacoma, WA

Change the Weather History Date:

Monday, November 19, 2012

  Actual Average Record
Temperature  
Mean Temperature 50 °F -  
Max Temperature 55 °F 48 °F 59 °F (2001)
Min Temperature 43 °F 35 °F 21 °F (2000)
Degree Days  
Heating Degree Days 14    
Moisture  
Dew Point 49 °F    
Average Humidity 91    
Maximum Humidity 100    
Minimum Humidity 77    
Precipitation  
Precipitation 1.73 in - - ()
Sea Level Pressure  
Sea Level Pressure 29.50 in    
Wind  
Wind Speed 15 mph (South)    
Max Wind Speed 31 mph    
Max Gust Speed 38 mph    
Visibility 8 miles    
Events Rain    
Averages and records for this station are not official NWS values.
T = Trace of Precipitation, MM = Missing Value Source: NWS Daily Summary

Daily Weather History Graph

Daily Weather History Graph

Search for Another Location

Airport:

Trip Planner

Search our weather history database for the weather conditions in past years. The results will help you decide how hot, cold, wet, or windy it might be!

Date:

Astronomy

Nov. 19, 2012 Rise Set
Actual Time 7:20 AM PST 4:30 PM PST
Civil Twilight 6:46 AM PST 5:03 PM PST
Nautical Twilight 6:09 AM PST 5:41 PM PST
Astronomical Twilight 5:32 AM PST 6:17 PM PST
Moon 12:16 PM PST (11/19) 11:14 PM PST (11/19)
Length of Visible Light 10h 17m
Length of Day
9h 09m
Waxing Crescent, 42% of the Moon is Illuminated
Nov 19
Waxing Crescent
Nov 20
First Quarter
Nov 28
Full
Dec 6
Last Quarter
Dec 13
New

Hourly Weather History & Observations

Time (PST) Temp. Windchill Dew Point Humidity Pressure Visibility Wind Dir Wind Speed Gust Speed Precip Events Conditions
12:58 AM 48.0 °F - 43.7 °F 85% 29.57 in 10.0 mi South 12.7 mph - N/A   Overcast
1:03 AM 48.2 °F - 44.6 °F 87% 29.56 in 10.0 mi South 15.0 mph - N/A Rain Light Rain
1:58 AM 47.5 °F - 45.7 °F 93% 29.57 in 5.0 mi SSE 18.4 mph 24.2 mph 0.12 in Rain Light Rain
2:58 AM 47.5 °F - 45.1 °F 92% 29.57 in 10.0 mi SSE 13.8 mph - 0.03 in Rain Light Rain
3:58 AM 47.5 °F - 46.6 °F 97% 29.57 in 6.0 mi SSE 5.8 mph - 0.17 in Rain Rain
4:58 AM 47.3 °F - 47.1 °F 99% 29.55 in 7.0 mi South 5.8 mph - 0.15 in Rain Light Rain
5:58 AM 48.0 °F - 47.7 °F 99% 29.52 in 6.0 mi East 6.9 mph - 0.18 in Rain Light Rain
6:58 AM 49.8 °F - 49.3 °F 98% 29.47 in 9.0 mi SE 11.5 mph - 0.17 in Rain Light Rain
7:56 AM 51.8 °F - 50.0 °F 94% 29.45 in 7.0 mi SSE 11.5 mph - N/A Rain Light Rain
8:58 AM 51.3 °F - 51.1 °F 99% 29.46 in 6.0 mi SSE 8.1 mph - 0.11 in Rain Light Rain
9:06 AM 51.8 °F - 51.8 °F 100% 29.45 in 8.0 mi SSE 11.5 mph - N/A   Overcast
9:09 AM 51.8 °F - 51.8 °F 100% 29.45 in 9.0 mi SSE 12.7 mph - N/A Rain Light Rain
9:58 AM 52.7 °F - 51.6 °F 96% 29.41 in 10.0 mi SSE 13.8 mph 19.6 mph 0.08 in Rain Light Rain
10:12 AM 53.6 °F - 51.8 °F 94% 29.41 in 10.0 mi SSE 12.7 mph - N/A   Overcast
10:17 AM 53.6 °F - 51.8 °F 94% 29.40 in 10.0 mi SSE 13.8 mph 20.7 mph N/A Rain Light Rain
10:56 AM 55.4 °F - 51.8 °F 88% 29.39 in 10.0 mi SSE 23.0 mph 33.4 mph 0.03 in Rain Light Rain
10:59 AM 55.4 °F - 51.8 °F 88% 29.38 in 10.0 mi SSE 24.2 mph 33.4 mph N/A   Mostly Cloudy
11:01 AM 55.4 °F - 51.8 °F 88% 29.38 in 10.0 mi SSE 20.7 mph 33.4 mph N/A Rain Light Rain
11:56 AM 55.4 °F - 51.8 °F 88% 29.37 in 9.0 mi South 21.9 mph 36.8 mph N/A Rain Light Rain
12:58 PM 55.4 °F - 52.7 °F 91% 29.42 in 9.0 mi South 24.2 mph 35.7 mph 0.12 in Rain Light Rain
1:16 PM 55.4 °F - 53.6 °F 94% 29.44 in 3.0 mi SW 20.7 mph 29.9 mph N/A Rain Rain
1:18 PM 55.4 °F - 53.6 °F 94% 29.45 in 2.0 mi SW 17.3 mph 29.9 mph N/A Rain Heavy Rain
1:23 PM 53.6 °F - 51.8 °F 94% 29.45 in 1.2 mi SW 31.1 mph 36.8 mph N/A Rain Heavy Rain
1:33 PM 53.6 °F - 51.8 °F 94% 29.46 in 2.0 mi SSW 17.3 mph 38.0 mph N/A Rain Rain
1:38 PM 53.6 °F - 51.8 °F 94% 29.46 in 4.0 mi SSW 17.3 mph 29.9 mph N/A Rain Rain
1:58 PM 53.4 °F - 49.5 °F 86% 29.47 in 4.0 mi SSW 21.9 mph 32.2 mph 0.32 in Rain Light Rain
2:12 PM 53.6 °F - 48.2 °F 82% 29.45 in 10.0 mi SSW 23.0 mph 32.2 mph N/A   Mostly Cloudy
2:32 PM 53.6 °F - 48.2 °F 82% 29.43 in 10.0 mi South 23.0 mph 28.8 mph N/A Rain Light Rain
2:58 PM 53.2 °F - 48.6 °F 84% 29.44 in 10.0 mi South 16.1 mph 25.3 mph 0.02 in Rain Light Rain
3:08 PM 53.6 °F - 48.2 °F 82% 29.44 in 10.0 mi South 12.7 mph - N/A   Mostly Cloudy
3:58 PM 54.9 °F - 48.2 °F 78% 29.47 in 10.0 mi South 16.1 mph 25.3 mph 0.00 in   Mostly Cloudy
4:58 PM 55.8 °F - 48.9 °F 78% 29.47 in 10.0 mi South 23.0 mph 36.8 mph N/A   Partly Cloudy
5:07 PM 55.4 °F - 48.2 °F 77% 29.48 in 10.0 mi South 18.4 mph 36.8 mph N/A Rain Light Rain
5:38 PM 55.4 °F - 48.2 °F 77% 29.51 in 9.0 mi SSW 18.4 mph 31.1 mph N/A Rain Light Rain
5:58 PM 54.1 °F - 48.4 °F 81% 29.52 in 10.0 mi SSW 16.1 mph 25.3 mph 0.01 in Rain Light Rain
5:59 PM 53.6 °F - 48.2 °F 82% 29.52 in 10.0 mi SSW 16.1 mph 25.3 mph N/A   Overcast
6:21 PM 53.6 °F - 48.2 °F 82% 29.54 in 10.0 mi SW 12.7 mph - N/A Rain Light Rain
6:33 PM 51.8 °F - 50.0 °F 94% 29.55 in 4.0 mi SW 18.4 mph 29.9 mph N/A Rain Light Rain
6:36 PM 51.8 °F - 50.0 °F 94% 29.56 in 3.0 mi WSW 20.7 mph 29.9 mph N/A Rain Heavy Rain
6:41 PM 51.8 °F - 50.0 °F 94% 29.56 in 2.0 mi WSW 19.6 mph 29.9 mph N/A Rain Heavy Rain
6:46 PM 51.8 °F - 50.0 °F 94% 29.56 in 2.5 mi SW 16.1 mph 28.8 mph N/A Rain Rain
6:51 PM 51.8 °F - 50.0 °F 94% 29.56 in 3.0 mi SW 16.1 mph 24.2 mph N/A Rain Rain
6:56 PM 51.8 °F - 48.2 °F 88% 29.56 in 3.0 mi SW 17.3 mph 24.2 mph N/A Rain Rain
6:58 PM 51.8 °F - 48.2 °F 88% 29.56 in 4.0 mi SW 16.1 mph 24.2 mph 0.22 in Rain Rain
7:13 PM 51.8 °F - 48.2 °F 88% 29.58 in 10.0 mi SSW 10.4 mph - N/A   Mostly Cloudy
7:58 PM 50.0 °F - 48.4 °F 94% 29.60 in 10.0 mi SSW 6.9 mph - 0.00 in   Mostly Cloudy
8:58 PM 48.7 °F - 48.2 °F 98% 29.63 in 10.0 mi South 5.8 mph - N/A   Scattered Clouds
9:58 PM 48.0 °F - 47.7 °F 99% 29.66 in 10.0 mi South 5.8 mph - N/A   Scattered Clouds
10:58 PM 46.0 °F 43.1 °F 45.9 °F 99% 29.67 in 10.0 mi South 5.8 mph - N/A   Scattered Clouds
11:58 PM 43.5 °F 41.9 °F 43.2 °F 99% 29.70 in 10.0 mi South 3.5 mph - N/A   Clear